Regional Weather Roundup
Issued by NWS

Home | Current Version | Previous Version | Text Only | Print | Product List | Glossary Off
Versions: 1 2 3 4 5 6 7 8 9 10 11 12 13 14 15 16 17 18 19 20 21 22 23 24 25 26 27 28 29 30 31 32 33 34 35 36 37 38 39 40 41 42 43 44 45 46 47 48 49 50

000
ASUS43 KMPX 292301
RWRMN
WEATHER ROUNDUP FOR MINNESOTA
NATIONAL WEATHER SERVICE TWIN CITIES/CHANHASSEN MN
600 PM CDT FRI MAY 29 2015


NOTE: "FAIR" INDICATES FEW OR NO CLOUDS BELOW 12,000 FEET WITH NO
SIGNIFICANT WEATHER AND/OR OBSTRUCTIONS TO VISIBILITY. N/A MEANS
CURRENT SKY AND/OR WEATHER CONDITIONS ARE NOT AVAILABLE.

MNZ060>063-068>070-300000-
   Twin Cities Metro

CITY           SKY/WX    TMP DP  RH WIND       PRES   REMARKS
TWIN CITIES    RAIN      65  62  90 N15G24    29.91R FOG
ST PAUL        LGT RAIN  64  62  93 N7        29.91S
CRYSTAL        LGT RAIN  63  60  90 N15       29.91S FOG
BLAINE         LGT RAIN  64  63  94 N12       29.93R
LAKEVILLE      LGT RAIN  63  63 100 N7        29.90S
EDEN PRAIRIE   LGT RAIN  63  61  93 N12       29.90S
SOUTH ST PAUL  LGT RAIN  64  62  92 N7        29.90S
LAKE ELMO      RAIN      63  63 100 N7        29.91F
$$
MNZ001>005-007-008-013>017-022>024-027-028-300000-
   Northwest Minnesota

CITY           SKY/WX    TMP DP  RH WIND       PRES   REMARKS
BEMIDJI        PTSUNNY   55  40  56 N12G17    30.10R
HALLOCK        MOSUNNY   54  30  40 N22G29    30.21R
ROSEAU         SUNNY     54  37  54 N17G23    30.16S
WARROAD        SUNNY     54  37  54 NW16G22   30.16R
THIEF RVR FALL SUNNY     54  36  50 N22G28    30.17R
CROOKSTON      SUNNY     54  36  50 N21G28    30.18R
FOSSTON        MOSUNNY   54  41  62 N20G26    30.14R
DETROIT LAKES  PTSUNNY   52  41  66 N8G20     30.12S
MOORHEAD       PTSUNNY   55  43  62 N22       30.15R
PARK RAPIDS    CLOUDY    56  40  55 N15       30.07S
MAHNOMEN       MOCLDY    52  42  67 N18G24    30.12S
$$
MNZ006-009>011-018-025>026-300000-
   North Central Minnesota

CITY           SKY/WX    TMP DP  RH WIND       PRES   REMARKS
BAUDETTE       SUNNY     53  38  56 N22       30.12R
FLAG ISLAND    PTSUNNY   52  36  54 NW24      30.14R
INTL FALLS     CLOUDY    50  40  68 N17G24    30.09R
WASKISH        MOSUNNY   54  41  62 N9G20     30.11S
BIG FORK       PTSUNNY   57  43  58 N9        30.07R
LONGVILLE      CLOUDY    54  45  71 N7        30.06R
GRAND RAPIDS   CLOUDY    54  43  66 N16       30.05S
CRANE LAKE     CLOUDY    50  45  81 NW8G16    30.07R
ORR            CLOUDY    52  39  62 NW7       30.04R
COOK           CLOUDY    52  43  71 N6        30.06R
WALKER         MOCLDY    54  40  60 NW9G18    30.08S
$$
MNZ012-019>021-037-300000-
   Northeast Minnesota

CITY           SKY/WX    TMP DP  RH WIND       PRES   REMARKS
DULUTH         CLOUDY    54  49  83 NW15G26   29.98R
HIBBING        CLOUDY    55  46  71 N10       30.03R
EVELETH        CLOUDY    52  43  71 N9G18     30.05R
DULUTH HARBOR  CLOUDY    57  52  82 N14G21    29.99R
TWO HARBORS    CLOUDY    59  52  77 N5G17     29.96R
SILVER BAY     CLOUDY    57  52  82 NW9G17    29.95R
GRAND MARAIS     N/A     60  50  69 SE8       29.92R
G MARAIS ARPRT CLOUDY    55  48  76 NW10      29.97R
$$
MNZ029>031-032-039>041-046>048-054>057-064-300000-
   West Central Minnesota

CITY           SKY/WX    TMP DP  RH WIND       PRES   REMARKS
FERGUS FALLS   CLOUDY    52  41  66 N17G24    30.11R
WHEATON        CLOUDY    48  41  76 N18G28    30.13S
MORRIS         CLOUDY    54  46  76 N25G31    30.06R
ALEXANDRIA     CLOUDY    53  46  77 N15G25    30.05S
ELBOW LAKE     PTSUNNY   52  44  75 N22       30.07S
WADENA         CLOUDY    54  43  66 N16       30.06S
GLENWOOD       CLOUDY    54  48  82 N16G22    30.04S
APPLETON       CLOUDY    52  46  82 N25       30.06R
BENSON         CLOUDY    54  46  76 N17G24    30.04S
ORTONVILLE     CLOUDY    48  43  81 N20G33    30.09R
MADISON          N/A     50  45  81 N26G35    30.07S
WILLMAR        CLOUDY    55  54  94 N18G25    30.01S
$$
MNZ033>034-036-042>043-049>051-058-059-300000-
   Central Minnesota

CITY           SKY/WX    TMP DP  RH WIND       PRES   REMARKS
ST CLOUD       LGT RAIN  53  50  89 N15G23    29.99R
SAUK CENTRE    CLOUDY    53  47  82 N14G24    30.03S
PAYNESVILLE    LGT RAIN  51  49  93 NW12G18   30.01R
AITKIN         CLOUDY    54  45  71 NW10      30.02S
PINE RIVER     CLOUDY    54  43  66 N15G23    30.09S
BRAINERD       CLOUDY    53  44  71 N14G23    30.04S
STAPLES        CLOUDY    52  43  71 N14       30.06S
LONG PRAIRIE   CLOUDY    52  45  76 N14G20    30.04S
LITTLE FALLS   CLOUDY    52  45  76 NW7       30.03R
LITCHFIELD     DRIZZLE   55  55 100 N12G24    29.99R
BUFFALO        DRIZZLE   56  53  89 N17G23    29.97R
MAPLE LAKE     LGT RAIN  56  54  94 N17       29.98S
$$
MNZ037-044-045-052-053-300000-
   East Central Minnesota

CITY           SKY/WX    TMP DP  RH WIND       PRES   REMARKS
PRINCETON      DRIZZLE   55  54  94 N14G22    29.98R
MORA           DRIZZLE   50  48  93 N8        30.00S
CAMBRIDGE      LGT RAIN  57  48  72 N8        29.95R
RUSH CITY      LGT RAIN  56  54  91 N15G21    29.96R
MOOSE LAKE     CLOUDY    54  48  82 N10G21    29.99S
HINCKLEY       LGT RAIN  54  54 100 N15       29.98R
CLOQUET        CLOUDY    55  46  71 N16G24    30.00R
MCGREGOR       CLOUDY    54  46  76 N13G21    30.03S
$$
MNZ071>073-080-081-089-090-097-098-300000-
   Southwest Minnesota

CITY           SKY/WX    TMP DP  RH WIND       PRES   REMARKS
MONTEVIDEO     DRIZZLE   52  50  93 N17G24    30.04S
GRANITE FALLS  DRIZZLE   51  49  93 NW13G20   30.03S
CANBY          CLOUDY    49  45  83 N18G28    30.07S
MARSHALL       CLOUDY    48  43  81 N24G32    30.02S
REDWOOD FALLS  LGT RAIN  56  53  90 N14G23    29.97S
OLIVIA         CLOUDY    54  50  87 N20G25    29.98S
PIPESTONE      CLOUDY    48  46  93 N17G25    30.03R
WINDOM         CLOUDY    55  54  94 NW22G31   29.96R FOG
WORTHINGTON    CLOUDY    54  46  76 N28G33    29.99R
JACKSON        CLOUDY    55  55 100 N22G32    29.95S
TRACY          HVY RAIN  50  49  96 NW18G29   30.02R
SLAYTON        CLOUDY    49  48  99 N22G30    30.01R FOG
$$
MNZ065>067-074>077-082>085-091>093-300000-
   South Central Minnesota

CITY           SKY/WX    TMP DP  RH WIND       PRES   REMARKS
MANKATO        CLOUDY    64  61  88 N13       29.91R
NEW ULM        CLOUDY    61  61 100 N10G20    29.93R
ST JAMES       CLOUDY    64  63  94 NW14      29.93S
FAIRMONT       CLOUDY    63  57  82 NW13      29.91R
GLENCOE        LGT RAIN  60  59  97 N13G21    29.94R
FARIBAULT      RAIN      64  63  94 N10       29.90S
OWATONNA       RAIN      66  63  88 CALM      29.89S
WASECA         RAIN      64  63  94 N8        29.90R
ALBERT LEA     LGT RAIN  68  63  83 N18G24    29.88R
$$
MNZ078>079-086>088-094>096-300000-
   Southeast Minnesota

CITY           SKY/WX    TMP DP  RH WIND       PRES   REMARKS
ROCHESTER      LGT RAIN  64  62  93 E5        29.91S
RED WING       CLOUDY    70  64  83 N3        29.88S
STANTON        CLOUDY    67  62  84 N10       29.88S
DODGE CENTER   CLOUDY    66  63  88 E9        29.89S
WINONA         LGT RAIN  66  64  94 CALM      29.88S
AUSTIN         LGT RAIN  66  64  94 E7        29.87F
PRESTON        CLOUDY    66  61  84 N7        29.89F
$$
ABBREVIATIONS USED IN REMARKS
   TC - TEMPERATURES IN CELSIUS
  WCI - WIND CHILL INDEX
   HX - HEAT INDEX
  VSB - VISIBILITY
$$



USA.gov is the U.S. government's official web portal to all federal, state and local government web resources and services.